nws-alerts: Checking more than four warning/county codes can delay the loading of your pages. You should use a cron job to get the data.
EllijayWeather Station Historical Data
Daily Summary for October 23, 2018 Units:  English    Metric   Both
Daily Weekly Monthly Yearly Custom
  High: Low: Average:
Temperature: 63.7 °F 37.6 °F 48.5 °F
Dew Point: 53.1 °F 27 °F 37.4 °F
Humidity: 78% 51% 66%
Wind Speed: 4.9mph 0mph 0.1mph
Wind Gust: 5mph - -
Wind- - NW
Pressure: 30.33 in 30.22 in -
Precipitation: 0 in    
Historical Graphs
 
 
Tabular Data for October 23, 2018
Time Temperature Dew Point Pressure Wind Wind Speed Wind Gust Humidity Rainfall Rate (Hourly) solar
00:04 42.3 °F 32.2 °F 30.32 in Calm     67% 0 in meteobridge W/m2
00:09 42.3 °F 32.2 °F 30.32 in Calm     67% 0 in meteobridge W/m2
00:14 42.3 °F 32.2 °F 30.32 in Calm     67% 0 in meteobridge W/m2
00:19 42.3 °F 31.6 °F 30.32 in Calm     66% 0 in meteobridge W/m2
00:24 42.1 °F 31.5 °F 30.32 in Calm     66% 0 in meteobridge W/m2
00:29 42.1 °F 31.5 °F 30.32 in Calm     66% 0 in meteobridge W/m2
00:34 42.1 °F 31.5 °F 30.32 in Calm     66% 0 in meteobridge W/m2
00:39 41.9 °F 31.5 °F 30.33 in Calm     66% 0 in meteobridge W/m2
00:44 41.9 °F 31.5 °F 30.32 in Calm     66% 0 in meteobridge W/m2
00:49 41.7 °F 31.6 °F 30.32 in Calm     67% 0 in meteobridge W/m2
00:54 41.7 °F 31.6 °F 30.32 in Calm     67% 0 in meteobridge W/m2
00:59 41.5 °F 31.5 °F 30.32 in Calm     67% 0 in meteobridge W/m2
01:04 41.4 °F 31.3 °F 30.32 in Calm     67% 0 in meteobridge W/m2
01:09 41.2 °F 31.1 °F 30.32 in Calm     67% 0 in meteobridge W/m2
01:14 41.2 °F 31.1 °F 30.32 in Calm     67% 0 in meteobridge W/m2
01:19 41 °F 30.9 °F 30.32 in Calm     67% 0 in meteobridge W/m2
01:24 40.8 °F 30.7 °F 30.31 in Calm     67% 0 in meteobridge W/m2
01:29 40.8 °F 30.7 °F 30.31 in Calm     67% 0 in meteobridge W/m2
01:34 40.6 °F 30.6 °F 30.31 in Calm     67% 0 in meteobridge W/m2
01:39 40.6 °F 30.6 °F 30.32 in Calm     67% 0 in meteobridge W/m2
01:44 40.5 °F 30.4 °F 30.32 in Calm     67% 0 in meteobridge W/m2
01:49 40.5 °F 30.4 °F 30.32 in Calm     67% 0 in meteobridge W/m2
01:54 40.5 °F 30.4 °F 30.32 in Calm     67% 0 in meteobridge W/m2
01:59 40.5 °F 30.4 °F 30.32 in Calm     67% 0 in meteobridge W/m2
02:04 40.3 °F 30.2 °F 30.31 in Calm     67% 0 in meteobridge W/m2
02:09 40.3 °F 30.2 °F 30.31 in Calm     67% 0 in meteobridge W/m2
02:14 39.9 °F 29.8 °F 30.31 in Calm     67% 0 in meteobridge W/m2
02:19 39.9 °F 29.8 °F 30.31 in Calm     67% 0 in meteobridge W/m2
02:24 39.9 °F 29.8 °F 30.31 in Calm     67% 0 in meteobridge W/m2
02:29 39.7 °F 29.7 °F 30.31 in Calm     67% 0 in meteobridge W/m2
02:34 39.7 °F 29.7 °F 30.31 in Calm     67% 0 in meteobridge W/m2
02:39 39.7 °F 29.7 °F 30.32 in Calm     67% 0 in meteobridge W/m2
02:44 39.7 °F 29.3 °F 30.31 in Calm     66% 0 in meteobridge W/m2
02:49 39.7 °F 29.3 °F 30.32 in Calm     66% 0 in meteobridge W/m2
02:54 39.7 °F 29.3 °F 30.32 in Calm     66% 0 in meteobridge W/m2
02:59 39.7 °F 29.3 °F 30.31 in Calm     66% 0 in meteobridge W/m2
03:04 39.7 °F 29.3 °F 30.31 in Calm     66% 0 in meteobridge W/m2
03:09 39.7 °F 29.3 °F 30.31 in Calm     66% 0 in meteobridge W/m2
03:14 39.7 °F 29.3 °F 30.31 in Calm     66% 0 in meteobridge W/m2
03:19 39.9 °F 29.5 °F 30.31 in Calm     66% 0 in meteobridge W/m2
03:24 39.9 °F 29.1 °F 30.30 in Calm     65% 0 in meteobridge W/m2
03:29 39.9 °F 29.1 °F 30.30 in Calm     65% 0 in meteobridge W/m2
03:34 39.9 °F 29.1 °F 30.30 in Calm     65% 0 in meteobridge W/m2
03:39 39.7 °F 28.9 °F 30.30 in Calm     65% 0 in meteobridge W/m2
03:44 39.7 °F 28.9 °F 30.30 in Calm     65% 0 in meteobridge W/m2
03:49 39.7 °F 28.9 °F 30.30 in Calm     65% 0 in meteobridge W/m2
03:54 39.7 °F 29.3 °F 30.30 in Calm     66% 0 in meteobridge W/m2
03:59 39.6 °F 29.1 °F 30.30 in Calm     66% 0 in meteobridge W/m2
04:04 39.6 °F 29.1 °F 30.30 in Calm     66% 0 in meteobridge W/m2
04:09 39.4 °F 28.9 °F 30.30 in Calm     66% 0 in meteobridge W/m2
04:14 39.4 °F 28.9 °F 30.30 in Calm     66% 0 in meteobridge W/m2
04:19 39.2 °F 28.8 °F 30.30 in Calm     66% 0 in meteobridge W/m2
04:24 39 °F 28.6 °F 30.30 in Calm     66% 0 in meteobridge W/m2
04:29 39 °F 28.6 °F 30.30 in Calm     66% 0 in meteobridge W/m2
04:34 38.8 °F 28.4 °F 30.29 in Calm     66% 0 in meteobridge W/m2
04:39 38.8 °F 28.4 °F 30.29 in Calm     66% 0 in meteobridge W/m2
04:44 38.7 °F 28.6 °F 30.29 in Calm     67% 0 in meteobridge W/m2
04:49 38.7 °F 28.6 °F 30.29 in Calm     67% 0 in meteobridge W/m2
04:54 38.5 °F 28 °F 30.29 in Calm     66% 0 in meteobridge W/m2
04:59 38.5 °F 28 °F 30.29 in Calm     66% 0 in meteobridge W/m2
05:04 38.3 °F 27.9 °F 30.29 in Calm     66% 0 in meteobridge W/m2
05:09 38.3 °F 27.9 °F 30.29 in Calm     66% 0 in meteobridge W/m2
05:14 38.1 °F 27.9 °F 30.29 in Calm     66% 0 in meteobridge W/m2
05:19 38.3 °F 27.9 °F 30.29 in Calm     66% 0 in meteobridge W/m2
05:24 38.3 °F 27.9 °F 30.29 in Calm     66% 0 in meteobridge W/m2
05:29 38.3 °F 27.9 °F 30.29 in Calm     66% 0 in meteobridge W/m2
05:34 38.3 °F 27.9 °F 30.29 in Calm     66% 0 in meteobridge W/m2
05:39 38.3 °F 27.9 °F 30.29 in Calm     66% 0 in meteobridge W/m2
05:44 38.3 °F 27.9 °F 30.29 in Calm     66% 0 in meteobridge W/m2
05:49 38.3 °F 27.9 °F 30.29 in Calm     66% 0 in meteobridge W/m2
05:54 38.3 °F 27.9 °F 30.29 in Calm     66% 0 in meteobridge W/m2
05:59 38.3 °F 27.9 °F 30.29 in Calm     66% 0 in meteobridge W/m2
06:04 38.3 °F 27.9 °F 30.29 in Calm     66% 0 in meteobridge W/m2
06:09 38.3 °F 27.9 °F 30.29 in Calm     66% 0 in meteobridge W/m2
06:14 38.1 °F 27.9 °F 30.29 in Calm     66% 0 in meteobridge W/m2
06:19 38.1 °F 27.9 °F 30.29 in Calm     66% 0 in meteobridge W/m2
06:24 38.1 °F 27.9 °F 30.29 in Calm     66% 0 in meteobridge W/m2
06:29 38.1 °F 27.9 °F 30.29 in Calm     66% 0 in meteobridge W/m2
06:34 37.9 °F 27.7 °F 30.29 in Calm     66% 0 in meteobridge W/m2
06:39 37.9 °F 27.7 °F 30.29 in Calm     66% 0 in meteobridge W/m2
06:44 37.9 °F 27.7 °F 30.29 in Calm     66% 0 in meteobridge W/m2
06:49 37.9 °F 27.7 °F 30.29 in Calm     66% 0 in meteobridge W/m2
06:54 37.9 °F 27.1 °F 30.29 in Calm     65% 0 in meteobridge W/m2
06:59 37.9 °F 27.1 °F 30.29 in Calm     65% 0 in meteobridge W/m2
07:04 37.9 °F 27.1 °F 30.29 in Calm     65% 0 in meteobridge W/m2
07:09 37.9 °F 27.1 °F 30.30 in Calm     65% 0 in meteobridge W/m2
07:14 37.9 °F 27.1 °F 30.30 in Calm     65% 0 in meteobridge W/m2
07:19 37.9 °F 27.1 °F 30.29 in Calm     65% 0 in meteobridge W/m2
07:24 37.9 °F 27.1 °F 30.29 in Calm     65% 0 in meteobridge W/m2
07:29 37.8 °F 27.1 °F 30.30 in Calm     65% 0 in meteobridge W/m2
07:34 37.8 °F 27.1 °F 30.30 in Calm     65% 0 in meteobridge W/m2
07:39 37.8 °F 27.1 °F 30.30 in Calm     65% 0 in meteobridge W/m2
07:44 37.8 °F 27.1 °F 30.30 in Calm     65% 0 in meteobridge W/m2
07:49 37.8 °F 27.1 °F 30.30 in Calm     65% 0 in meteobridge W/m2
07:54 37.8 °F 27.1 °F 30.30 in Calm     65% 0 in meteobridge W/m2
07:59 37.8 °F 27.1 °F 30.30 in Calm     65% 0 in meteobridge W/m2
08:04 37.6 °F 27 °F 30.30 in Calm     65% 0 in meteobridge W/m2
08:09 37.6 °F 27 °F 30.30 in Calm     65% 0 in meteobridge W/m2
08:14 37.6 °F 27 °F 30.30 in Calm     65% 0 in meteobridge W/m2
08:19 37.8 °F 27.1 °F 30.30 in Calm     65% 0 in meteobridge W/m2
08:24 37.8 °F 27.1 °F 30.30 in Calm     65% 0 in meteobridge W/m2
08:29 37.8 °F 27.1 °F 30.30 in Calm     65% 0 in meteobridge W/m2
08:34 37.9 °F 27.1 °F 30.30 in Calm     65% 0 in meteobridge W/m2
08:39 37.9 °F 27.1 °F 30.31 in Calm     65% 0 in meteobridge W/m2
08:44 38.1 °F 27.3 °F 30.31 in Calm     65% 0 in meteobridge W/m2
08:49 38.5 °F 27.3 °F 30.31 in Calm     64% 0 in meteobridge W/m2
08:54 38.8 °F 27.7 °F 30.31 in Calm     64% 0 in meteobridge W/m2
08:59 39 °F 27.9 °F 30.32 in Calm     64% 0 in meteobridge W/m2
09:04 39.4 °F 27.9 °F 30.32 in Calm     63% 0 in meteobridge W/m2
09:09 39.7 °F 28.2 °F 30.32 in Calm     63% 0 in meteobridge W/m2
09:14 39.9 °F 28.4 °F 30.32 in Calm     63% 0 in meteobridge W/m2
09:19 40.5 °F 28.9 °F 30.32 in Calm     63% 0 in meteobridge W/m2
09:24 40.8 °F 28.8 °F 30.32 in Calm     62% 0 in meteobridge W/m2
09:29 41.2 °F 29.1 °F 30.32 in Calm     62% 0 in meteobridge W/m2
09:34 41.5 °F 29.5 °F 30.31 in Calm     62% 0 in meteobridge W/m2
09:39 41.9 °F 29.8 °F 30.31 in Calm     62% 0 in meteobridge W/m2
09:44 42.3 °F 29.8 °F 30.31 in Calm     61% 0 in meteobridge W/m2
09:49 42.8 °F 30.2 °F 30.31 in Calm     61% 0 in meteobridge W/m2
09:54 43.2 °F 30.6 °F 30.31 in Calm     61% 0 in meteobridge W/m2
09:59 43.3 °F 30.7 °F 30.31 in Calm     61% 0 in meteobridge W/m2
10:04 43.9 °F 30.9 °F 30.31 in Calm     60% 0 in meteobridge W/m2
10:09 44.2 °F 31.3 °F 30.31 in Calm     60% 0 in meteobridge W/m2
10:14 44.8 °F 31.8 °F 30.31 in Calm     60% 0 in meteobridge W/m2
10:19 45.3 °F 32.2 °F 30.31 in Calm     60% 0 in meteobridge W/m2
10:24 45.9 °F 32.7 °F 30.31 in Calm     60% 0 in meteobridge W/m2
10:29 46.4 °F 32.9 °F 30.31 in Calm     59% 0 in meteobridge W/m2
10:33 46.8 °F 33.3 °F 30.32 in Calm     59% 0 in meteobridge W/m2
10:39 47.3 °F 33.6 °F 30.32 in Calm     59% 0 in meteobridge W/m2
10:44 47.8 °F 34.2 °F 30.32 in Calm     59% 0 in meteobridge W/m2
10:49 48.6 °F 34.5 °F 30.32 in Calm     58% 0 in meteobridge W/m2
10:54 49.1 °F 34.9 °F 30.32 in Calm     58% 0 in meteobridge W/m2
10:59 49.6 °F 36 °F 30.32 in Calm     59% 0 in meteobridge W/m2
11:04 50.2 °F 36.3 °F 30.32 in Calm     59% 0 in meteobridge W/m2
11:09 50.5 °F 37.6 °F 30.32 in Calm     61% 0 in meteobridge W/m2
11:14 51.3 °F 39 °F 30.32 in Calm     63% 0 in meteobridge W/m2
11:19 51.6 °F 40.6 °F 30.32 in Calm     66% 0 in meteobridge W/m2
11:24 52.2 °F 42.3 °F 30.32 in Calm     69% 0 in meteobridge W/m2
11:29 52.3 °F 44.2 °F 30.32 in Calm   1 mph 74% 0 in meteobridge W/m2
11:34 52.9 °F 45.9 °F 30.31 in Calm     77% 0 in meteobridge W/m2
11:39 53.2 °F 46.6 °F 30.31 in Calm     78% 0 in meteobridge W/m2
11:44 53.6 °F 46.9 °F 30.31 in Calm     78% 0 in meteobridge W/m2
11:49 54.3 °F 47.3 °F 30.31 in Calm     77% 0 in meteobridge W/m2
11:54 55 °F 48 °F 30.31 in Calm   2 mph 77% 0 in meteobridge W/m2
11:59 55.6 °F 48.2 °F 30.31 in Calm     76% 0 in meteobridge W/m2
12:04 56.1 °F 48.4 °F 30.31 in Calm     75% 0 in meteobridge W/m2
12:09 56.7 °F 48 °F 30.30 in Calm     73% 0 in meteobridge W/m2
12:14 57.2 °F 48.2 °F 30.30 in Calm     72% 0 in meteobridge W/m2
12:19 57.6 °F 48.2 °F 30.30 in Calm     71% 0 in meteobridge W/m2
12:24 58.1 °F 47.1 °F 30.30 in Calm   3 mph 67% 0 in meteobridge W/m2
12:29 58.6 °F 48.6 °F 30.30 in Calm   1 mph 69% 0 in meteobridge W/m2
12:34 59 °F 48.4 °F 30.30 in Calm   2 mph 68% 0 in meteobridge W/m2
12:39 59.4 °F 47.7 °F 30.29 in Calm   1 mph 65% 0 in meteobridge W/m2
12:44 59.5 °F 46 °F 30.29 in Calm   4 mph 61% 0 in meteobridge W/m2
12:48 59.7 °F 45.9 °F 30.29 in Calm   2 mph 60% 0 in meteobridge W/m2
12:54 60.3 °F 45.5 °F 30.29 in Calm   2 mph 58% 0 in meteobridge W/m2
12:59 60.4 °F 43.7 °F 30.29 in NW 2 mph 5 mph 54% 0 in meteobridge W/m2
13:04 60.4 °F 44.2 °F 30.28 in NW 4.9 mph 5 mph 55% 0 in meteobridge W/m2
13:09 60.4 °F 43.7 °F 30.28 in NW 2.9 mph 4 mph 54% 0 in meteobridge W/m2
13:14 60.4 °F 43.7 °F 30.28 in Calm   1 mph 54% 0 in meteobridge W/m2
13:19 60.6 °F 45.3 °F 30.28 in Calm   1 mph 57% 0 in meteobridge W/m2
13:24 60.6 °F 45.3 °F 30.28 in NNW 0.9 mph 4 mph 57% 0 in meteobridge W/m2
13:29 60.8 °F 45.9 °F 30.27 in Calm   3 mph 58% 0 in meteobridge W/m2
13:34 61 °F 45.7 °F 30.27 in Calm   1 mph 57% 0 in meteobridge W/m2
13:39 61 °F 45.7 °F 30.26 in Calm   3 mph 57% 0 in meteobridge W/m2
13:44 61.2 °F 46.2 °F 30.27 in Calm   4 mph 58% 0 in meteobridge W/m2
13:49 61.2 °F 45.9 °F 30.26 in Calm     57% 0 in meteobridge W/m2
13:54 61.2 °F 45.3 °F 30.26 in Calm   2 mph 56% 0 in meteobridge W/m2
13:59 61.3 °F 46.9 °F 30.26 in Calm     59% 0 in meteobridge W/m2
14:04 61.3 °F 44.1 °F 30.26 in NW 2.9 mph 5 mph 53% 0 in meteobridge W/m2
14:09 61.5 °F 44.2 °F 30.25 in Calm   3 mph 53% 0 in meteobridge W/m2
14:14 61.5 °F 44.2 °F 30.25 in Calm   3 mph 53% 0 in meteobridge W/m2
14:19 61.9 °F 44.6 °F 30.25 in Calm   1 mph 53% 0 in meteobridge W/m2
14:24 62.1 °F 46.6 °F 30.24 in Calm     57% 0 in meteobridge W/m2
14:29 62.1 °F 44.2 °F 30.24 in Calm   1 mph 52% 0 in meteobridge W/m2
14:34 62.2 °F 45.3 °F 30.24 in Calm     54% 0 in meteobridge W/m2
14:39 62.2 °F 45.9 °F 30.24 in Calm     55% 0 in meteobridge W/m2
14:44 62.4 °F 46.6 °F 30.24 in Calm   3 mph 56% 0 in meteobridge W/m2
14:49 62.4 °F 45.1 °F 30.24 in Calm   1 mph 53% 0 in meteobridge W/m2
14:54 62.6 °F 45.1 °F 30.24 in Calm     53% 0 in meteobridge W/m2
14:59 62.8 °F 45.9 °F 30.23 in Calm     54% 0 in meteobridge W/m2
15:04 63 °F 45.5 °F 30.23 in Calm     53% 0 in meteobridge W/m2
15:09 63.1 °F 45.1 °F 30.23 in Calm     52% 0 in meteobridge W/m2
15:14 63.1 °F 45.7 °F 30.23 in Calm     53% 0 in meteobridge W/m2
15:19 63.1 °F 44.8 °F 30.23 in West 2 mph 5 mph 51% 0 in meteobridge W/m2
15:24 63.1 °F 44.8 °F 30.23 in Calm     51% 0 in meteobridge W/m2
15:29 63.3 °F 45 °F 30.23 in NNW 2 mph 3 mph 51% 0 in meteobridge W/m2
15:34 63.5 °F 45.5 °F 30.23 in Calm   1 mph 52% 0 in meteobridge W/m2
15:39 63.7 °F 45.7 °F 30.23 in Calm   1 mph 52% 0 in meteobridge W/m2
15:44 63.7 °F 46.8 °F 30.22 in Calm     54% 0 in meteobridge W/m2
15:49 63.7 °F 47.3 °F 30.22 in Calm     55% 0 in meteobridge W/m2
15:54 63.7 °F 48.2 °F 30.22 in Calm     57% 0 in meteobridge W/m2
15:59 63.7 °F 48.2 °F 30.22 in Calm     57% 0 in meteobridge W/m2
16:04 63.7 °F 49.1 °F 30.22 in Calm   1 mph 59% 0 in meteobridge W/m2
16:09 63.7 °F 49.5 °F 30.22 in Calm     60% 0 in meteobridge W/m2
16:14 63.5 °F 49.8 °F 30.22 in Calm     61% 0 in meteobridge W/m2
16:19 63.5 °F 51.4 °F 30.22 in Calm     65% 0 in meteobridge W/m2
16:24 63.3 °F 52.2 °F 30.22 in Calm     67% 0 in meteobridge W/m2
16:29 63.1 °F 52.3 °F 30.22 in Calm     68% 0 in meteobridge W/m2
16:34 63 °F 52.2 °F 30.22 in Calm   1 mph 68% 0 in meteobridge W/m2
16:39 63 °F 53.1 °F 30.23 in NW 0.9 mph 3 mph 70% 0 in meteobridge W/m2
16:44 62.8 °F 52.9 °F 30.22 in Calm     70% 0 in meteobridge W/m2
16:49 62.6 °F 52.7 °F 30.23 in Calm   1 mph 70% 0 in meteobridge W/m2
16:54 62.4 °F 52.5 °F 30.23 in Calm     70% 0 in meteobridge W/m2
16:59 62.2 °F 52.3 °F 30.23 in Calm     70% 0 in meteobridge W/m2
17:04 62.2 °F 52.3 °F 30.23 in Calm   2 mph 70% 0 in meteobridge W/m2
17:09 62.1 °F 51.8 °F 30.23 in Calm   2 mph 69% 0 in meteobridge W/m2
17:14 62.1 °F 52.9 °F 30.23 in Calm     72% 0 in meteobridge W/m2
17:19 61.9 °F 52.3 °F 30.23 in Calm   2 mph 71% 0 in meteobridge W/m2
17:24 61.7 °F 52.9 °F 30.23 in Calm     73% 0 in meteobridge W/m2
17:29 61.3 °F 52.2 °F 30.23 in Calm     72% 0 in meteobridge W/m2
17:34 61.2 °F 52.5 °F 30.22 in Calm     73% 0 in meteobridge W/m2
17:39 61 °F 52.3 °F 30.22 in Calm     73% 0 in meteobridge W/m2
17:44 60.8 °F 52.2 °F 30.22 in Calm     73% 0 in meteobridge W/m2
17:49 60.4 °F 52.2 °F 30.22 in Calm     74% 0 in meteobridge W/m2
17:54 60.3 °F 52 °F 30.22 in Calm     74% 0 in meteobridge W/m2
17:59 60.1 °F 51.8 °F 30.22 in Calm     74% 0 in meteobridge W/m2
18:04 59.9 °F 52 °F 30.22 in Calm     75% 0 in meteobridge W/m2
18:09 59.7 °F 51.8 °F 30.23 in Calm     75% 0 in meteobridge W/m2
18:14 59.5 °F 51.6 °F 30.23 in Calm     75% 0 in meteobridge W/m2
18:19 59.4 °F 51.8 °F 30.22 in Calm     76% 0 in meteobridge W/m2
18:24 59 °F 51.4 °F 30.22 in Calm     76% 0 in meteobridge W/m2
18:29 58.5 °F 50.9 °F 30.22 in Calm     76% 0 in meteobridge W/m2
18:34 58.3 °F 50.7 °F 30.22 in Calm     76% 0 in meteobridge W/m2
18:39 57.7 °F 50.2 °F 30.22 in Calm     76% 0 in meteobridge W/m2
18:44 57.6 °F 50.4 °F 30.22 in Calm     77% 0 in meteobridge W/m2
18:49 57.2 °F 50 °F 30.22 in Calm     77% 0 in meteobridge W/m2
18:54 56.8 °F 49.6 °F 30.22 in Calm     77% 0 in meteobridge W/m2
18:59 56.5 °F 49.3 °F 30.22 in Calm     77% 0 in meteobridge W/m2
19:04 55.9 °F 48.6 °F 30.22 in Calm     76% 0 in meteobridge W/m2
19:09 55.8 °F 48.4 °F 30.22 in Calm     76% 0 in meteobridge W/m2
19:14 55.2 °F 47.8 °F 30.22 in Calm     76% 0 in meteobridge W/m2
19:19 55 °F 47.7 °F 30.22 in Calm     76% 0 in meteobridge W/m2
19:24 54.7 °F 46.9 °F 30.22 in Calm     75% 0 in meteobridge W/m2
19:29 54.1 °F 46 °F 30.22 in Calm     74% 0 in meteobridge W/m2
19:34 53.8 °F 45.7 °F 30.23 in Calm     74% 0 in meteobridge W/m2
19:39 53.4 °F 45 °F 30.23 in Calm     73% 0 in meteobridge W/m2
19:44 53.1 °F 44.2 °F 30.23 in Calm     72% 0 in meteobridge W/m2
19:49 52.7 °F 43.5 °F 30.23 in Calm     71% 0 in meteobridge W/m2
19:54 52.3 °F 42.8 °F 30.23 in Calm     70% 0 in meteobridge W/m2
19:59 52.2 °F 42.6 °F 30.24 in Calm     70% 0 in meteobridge W/m2
20:04 52 °F 42.1 °F 30.24 in Calm     69% 0 in meteobridge W/m2
20:09 51.8 °F 41.9 °F 30.24 in Calm     69% 0 in meteobridge W/m2
20:14 51.6 °F 41.7 °F 30.24 in Calm     69% 0 in meteobridge W/m2
20:19 51.4 °F 41.2 °F 30.24 in Calm     68% 0 in meteobridge W/m2
20:24 51.3 °F 41 °F 30.24 in Calm     68% 0 in meteobridge W/m2
20:29 51.1 °F 40.8 °F 30.24 in Calm     68% 0 in meteobridge W/m2
20:34 50.7 °F 40.5 °F 30.24 in Calm     68% 0 in meteobridge W/m2
20:39 50.4 °F 40.3 °F 30.24 in Calm     68% 0 in meteobridge W/m2
20:44 50.2 °F 39.6 °F 30.24 in Calm     67% 0 in meteobridge W/m2
20:49 49.8 °F 39.4 °F 30.24 in Calm     67% 0 in meteobridge W/m2
20:54 49.6 °F 39.2 °F 30.24 in Calm     67% 0 in meteobridge W/m2
20:59 49.6 °F 39.6 °F 30.24 in Calm     68% 0 in meteobridge W/m2
21:04 49.5 °F 39 °F 30.24 in Calm     67% 0 in meteobridge W/m2
21:09 49.1 °F 38.7 °F 30.24 in Calm     67% 0 in meteobridge W/m2
21:14 48.9 °F 38.5 °F 30.24 in Calm     67% 0 in meteobridge W/m2
21:19 48.7 °F 38.3 °F 30.24 in Calm     67% 0 in meteobridge W/m2
21:24 48.6 °F 38.1 °F 30.24 in Calm     67% 0 in meteobridge W/m2
21:29 48.4 °F 37.9 °F 30.24 in Calm     67% 0 in meteobridge W/m2
21:34 48 °F 37.6 °F 30.24 in Calm     67% 0 in meteobridge W/m2
21:39 47.8 °F 37.4 °F 30.24 in Calm     67% 0 in meteobridge W/m2
21:44 47.7 °F 37.2 °F 30.24 in Calm     67% 0 in meteobridge W/m2
21:49 47.5 °F 36.7 °F 30.24 in Calm     66% 0 in meteobridge W/m2
21:54 47.1 °F 36.3 °F 30.25 in Calm     66% 0 in meteobridge W/m2
21:59 46.9 °F 36.1 °F 30.25 in Calm     66% 0 in meteobridge W/m2
22:04 46.9 °F 36.1 °F 30.25 in Calm     66% 0 in meteobridge W/m2
22:09 46.8 °F 36 °F 30.25 in Calm     66% 0 in meteobridge W/m2
22:14 46.6 °F 35.8 °F 30.25 in Calm     66% 0 in meteobridge W/m2
22:19 46.2 °F 35.4 °F 30.25 in Calm     66% 0 in meteobridge W/m2
22:24 46 °F 35.2 °F 30.26 in Calm     66% 0 in meteobridge W/m2
22:29 45.9 °F 35.1 °F 30.25 in Calm     66% 0 in meteobridge W/m2
22:34 45.9 °F 35.1 °F 30.25 in Calm     66% 0 in meteobridge W/m2
22:39 45.7 °F 35.1 °F 30.25 in Calm     66% 0 in meteobridge W/m2
22:44 45.3 °F 34.7 °F 30.26 in Calm     66% 0 in meteobridge W/m2
22:49 45.1 °F 34.5 °F 30.26 in Calm     66% 0 in meteobridge W/m2
22:54 45.1 °F 34.5 °F 30.26 in Calm     66% 0 in meteobridge W/m2
22:59 45 °F 34.3 °F 30.26 in Calm     66% 0 in meteobridge W/m2
23:04 44.8 °F 34.2 °F 30.26 in Calm     66% 0 in meteobridge W/m2
23:09 44.6 °F 34 °F 30.26 in Calm     66% 0 in meteobridge W/m2
23:14 44.4 °F 33.8 °F 30.25 in Calm     66% 0 in meteobridge W/m2
23:19 44.2 °F 33.6 °F 30.26 in Calm     66% 0 in meteobridge W/m2
23:24 44.1 °F 33.4 °F 30.26 in Calm     66% 0 in meteobridge W/m2
23:29 43.9 °F 33.3 °F 30.25 in Calm     66% 0 in meteobridge W/m2
23:34 43.9 °F 33.3 °F 30.25 in Calm     66% 0 in meteobridge W/m2
23:39 43.5 °F 32.9 °F 30.25 in Calm     66% 0 in meteobridge W/m2
23:44 43.3 °F 32.7 °F 30.25 in Calm     66% 0 in meteobridge W/m2
23:49 43.3 °F 32.7 °F 30.25 in Calm     66% 0 in meteobridge W/m2
23:54 43.3 °F 32.7 °F 30.24 in Calm     66% 0 in meteobridge W/m2
23:59 43.2 °F 32.5 °F 30.24 in Calm     66% 0 in meteobridge W/m2
EllijayWeather
Compliments of Weather Underground - 2.5 mb